| time (UTC) | temp F | wind direction | speed MPH | gust MPH | rain 1hr in | rain 24hr in | rain mn in | humidity % | barometer mb |
| 20260506140111 | 44 | 44 | 0.0 | 0.0 | 0.03 | 0.98 | 0.70 | 98 | 1010.3 |
| 20260506134558 | 44 | 44 | 0.0 | 0.0 | 0.04 | 0.98 | 0.70 | 98 | 1010.2 |
| 20260506133058 | 43 | 44 | 0.0 | 0.0 | 0.04 | 0.97 | 0.69 | 98 | 1010.3 |
| 20260506131559 | 44 | 44 | 0.0 | 0.0 | 0.04 | 0.96 | 0.68 | 98 | 1010.3 |
| 20260506130128 | 43 | 44 | 0.0 | 0.0 | 0.03 | 0.95 | 0.67 | 98 | 1010.2 |
| 20260506124557 | 43 | 44 | 0.0 | 0.0 | 0.03 | 0.94 | 0.66 | 98 | 1010.1 |
| 20260506123056 | 43 | 44 | 0.0 | 0.0 | 0.03 | 0.93 | 0.65 | 98 | 1010.0 |
| 20260506121556 | 43 | 44 | 0.0 | 0.0 | 0.03 | 0.92 | 0.64 | 98 | 1010.0 |
| 20260506120054 | 43 | 44 | 0.0 | 0.0 | 0.03 | 0.91 | 0.63 | 98 | 1010.1 |
| 20260506114552 | 43 | 44 | 0.0 | 0.0 | 0.04 | 0.91 | 0.63 | 98 | 1010.2 |
| 20260506113049 | 43 | 44 | 0.0 | 0.0 | 0.05 | 0.90 | 0.62 | 98 | 1010.2 |
| 20260506111546 | 43 | 44 | 0.0 | 0.0 | 0.04 | 0.88 | 0.60 | 98 | 1010.0 |
| 20260506110052 | 43 | 44 | 0.0 | 0.0 | 0.06 | 0.88 | 0.60 | 98 | 1009.8 |
| 20260506104545 | 44 | 44 | 0.0 | 0.0 | 0.06 | 0.87 | 0.59 | 98 | 1009.6 |
| 20260506103047 | 44 | 44 | 0.0 | 0.0 | 0.06 | 0.85 | 0.56 | 97 | 1009.9 |
| 20260506101553 | 44 | 44 | 0.0 | 0.0 | 0.06 | 0.84 | 0.56 | 97 | 1010.1 |
| 20260506100043 | 44 | 44 | 0.0 | 0.0 | 0.05 | 0.82 | 0.54 | 97 | 1010.0 |
| 20260506094552 | 44 | 44 | 0.0 | 0.0 | 0.05 | 0.81 | 0.53 | 97 | 1009.9 |
| 20260506093046 | 44 | 44 | 0.0 | 0.0 | 0.04 | 0.79 | 0.51 | 97 | 1010.2 |
| 20260506091540 | 44 | 44 | 0.0 | 0.0 | 0.04 | 0.78 | 0.50 | 97 | 1009.9 |
| 20260506090042 | 44 | 44 | 0.0 | 0.0 | 0.04 | 0.77 | 0.49 | 98 | 1009.7 |
| 20260506084538 | 44 | 44 | 0.0 | 0.0 | 0.05 | 0.76 | 0.48 | 97 | 1009.9 |
| 20260506083037 | 44 | 44 | 0.0 | 0.0 | 0.06 | 0.75 | 0.47 | 97 | 1009.9 |
| 20260506081536 | 44 | 44 | 0.0 | 0.0 | 0.08 | 0.74 | 0.46 | 97 | 1010.1 |
| 20260506073030 | 45 | 44 | 0.0 | 1.0 | 0.10 | 0.69 | 0.41 | 97 | 1009.9 |
| 20260506071529 | 46 | 44 | 0.0 | 1.0 | 0.09 | 0.66 | 0.38 | 97 | 1009.8 |
| 20260506061520 | 47 | 61 | 0.0 | 4.0 | 0.15 | 0.61 | 0.28 | 97 | 1010.1 |
| 20260506044512 | 48 | 215 | 0.0 | 0.0 | 0.09 | 0.40 | 0.08 | 97 | 1010.6 |
| 20260506043010 | 48 | 215 | 0.0 | 0.0 | 0.07 | 0.37 | 0.05 | 97 | 1010.4 |
| 20260506041522 | 48 | 215 | 0.0 | 0.0 | 0.06 | 0.34 | 0.02 | 97 | 1010.3 |
| 20260506040006 | 48 | 215 | 0.0 | 0.0 | 0.06 | 0.32 | 0.00 | 97 | 1010.4 |
| 20260506034508 | 48 | 215 | 0.0 | 0.0 | 0.05 | 0.31 | 0.31 | 97 | 1010.5 |
| 20260506033005 | 48 | 215 | 0.0 | 0.0 | 0.03 | 0.28 | 0.28 | 97 | 1010.6 |
| 20260506031510 | 48 | 215 | 0.0 | 0.0 | 0.02 | 0.28 | 0.28 | 97 | 1010.9 |
| 20260506030007 | 48 | 215 | 0.0 | 0.0 | 0.00 | 0.26 | 0.26 | 97 | 1010.9 |
| 20260506024503 | 48 | 215 | 0.0 | 0.0 | 0.00 | 0.26 | 0.26 | 96 | 1010.9 |
| 20260506023002 | 48 | 215 | 0.0 | 0.0 | 0.01 | 0.26 | 0.26 | 96 | 1010.9 |
| 20260506021502 | 48 | 215 | 0.0 | 2.0 | 0.02 | 0.26 | 0.26 | 96 | 1011.1 |
| 20260506020001 | 48 | 215 | 0.0 | 1.0 | 0.04 | 0.26 | 0.26 | 96 | 1011.0 |
| 20260506014600 | 48 | 215 | 0.0 | 0.0 | 0.04 | 0.26 | 0.26 | 96 | 1011.0 |
| 20260506013058 | 48 | 215 | 0.0 | 0.0 | 0.03 | 0.25 | 0.25 | 96 | 1010.9 |
| 20260506011557 | 48 | 282 | 0.0 | 0.0 | 0.04 | 0.24 | 0.24 | 96 | 1010.9 |
| 20260506010055 | 48 | 282 | 0.0 | 0.0 | 0.03 | 0.22 | 0.22 | 95 | 1010.9 |
| 20260506004557 | 47 | 282 | 0.0 | 0.0 | 0.04 | 0.22 | 0.22 | 95 | 1010.4 |
| 20260506003053 | 47 | 282 | 0.0 | 0.0 | 0.03 | 0.21 | 0.21 | 95 | 1010.2 |
| 20260506001609 | 47 | 282 | 0.0 | 0.0 | 0.03 | 0.20 | 0.20 | 94 | 1010.4 |
| 20260506000051 | 47 | 282 | 0.0 | 1.0 | 0.04 | 0.19 | 0.19 | 94 | 1010.0 |
| 20260505234651 | 47 | 282 | 0.0 | 0.0 | 0.04 | 0.18 | 0.18 | 94 | 1009.9 |
| 20260505233055 | 47 | 282 | 0.0 | 1.0 | 0.05 | 0.18 | 0.18 | 93 | 1009.8 |
| 20260505231553 | 48 | 292 | 0.0 | 2.0 | 0.05 | 0.17 | 0.17 | 92 | 1010.0 |
| 20260505230046 | 48 | 275 | 0.0 | 3.0 | 0.04 | 0.15 | 0.15 | 91 | 1010.0 |
| 20260505224547 | 48 | 286 | 0.0 | 6.0 | 0.05 | 0.14 | 0.14 | 90 | 1009.6 |
| 20260505223046 | 49 | 266 | 2.0 | 10.0 | 0.08 | 0.13 | 0.13 | 89 | 1009.2 |
| 20260505221544 | 50 | 269 | 2.0 | 10.0 | 0.07 | 0.12 | 0.12 | 87 | 1009.6 |
| 20260505220039 | 51 | 286 | 1.0 | 11.0 | 0.06 | 0.11 | 0.11 | 84 | 1009.2 |
| 20260505214548 | 55 | 267 | 5.0 | 15.0 | 0.04 | 0.09 | 0.09 | 82 | 1009.1 |
| 20260505213045 | 59 | 279 | 4.0 | 13.0 | 0.00 | 0.05 | 0.05 | 77 | 1008.2 |
| 20260505211524 | 61 | 282 | 4.0 | 12.0 | 0.00 | 0.05 | 0.05 | 74 | 1007.2 |
| 20260505210026 | 62 | 100 | 3.0 | 8.0 | 0.00 | 0.05 | 0.05 | 74 | 1006.7 |
| 20260505204528 | 62 | 342 | 3.0 | 9.0 | 0.00 | 0.05 | 0.05 | 73 | 1006.9 |
| 20260505203022 | 63 | 244 | 2.0 | 9.0 | 0.00 | 0.05 | 0.05 | 71 | 1006.6 |
| 20260505201518 | 64 | 261 | 2.0 | 10.0 | 0.00 | 0.05 | 0.05 | 69 | 1006.4 |
| 20260505200019 | 65 | 5 | 3.0 | 11.0 | 0.00 | 0.05 | 0.05 | 68 | 1006.2 |
| 20260505194518 | 65 | 256 | 5.0 | 12.0 | 0.00 | 0.05 | 0.05 | 67 | 1006.4 |
| 20260505193035 | 66 | 246 | 3.0 | 9.0 | 0.00 | 0.05 | 0.05 | 67 | 1006.4 |
| 20260505191516 | 68 | 186 | 4.0 | 14.0 | 0.00 | 0.05 | 0.05 | 65 | 1006.3 |
| 20260505190027 | 68 | 184 | 3.0 | 12.0 | 0.00 | 0.05 | 0.05 | 66 | 1006.1 |
| 20260505184518 | 68 | 248 | 2.0 | 12.0 | 0.00 | 0.05 | 0.05 | 66 | 1006.3 |
| 20260505183017 | 67 | 282 | 4.0 | 10.0 | 0.00 | 0.05 | 0.05 | 65 | 1006.2 |
| 20260505181516 | 68 | 140 | 5.0 | 12.0 | 0.00 | 0.05 | 0.05 | 63 | 1006.1 |
| 20260505180019 | 67 | 22 | 3.0 | 18.0 | 0.00 | 0.05 | 0.05 | 65 | 1005.8 |
| 20260505174509 | 66 | 221 | 4.0 | 15.0 | 0.00 | 0.05 | 0.05 | 67 | 1005.7 |
| 20260505173009 | 67 | 76 | 4.0 | 12.0 | 0.00 | 0.05 | 0.05 | 64 | 1005.9 |
| 20260505171522 | 68 | 220 | 2.0 | 12.0 | 0.00 | 0.05 | 0.05 | 63 | 1005.5 |
| 20260505170011 | 68 | 106 | 3.0 | 10.0 | 0.00 | 0.05 | 0.05 | 67 | 1005.5 |
| 20260505164505 | 66 | 107 | 4.0 | 11.0 | 0.00 | 0.05 | 0.05 | 68 | 1005.5 |
| 20260505163005 | 63 | 261 | 1.0 | 13.0 | 0.00 | 0.05 | 0.05 | 71 | 1005.6 |
| 20260505161504 | 64 | 266 | 1.0 | 12.0 | 0.00 | 0.05 | 0.05 | 70 | 1005.8 |
| 20260505153110 | 64 | 263 | 1.0 | 6.0 | 0.01 | 0.05 | 0.05 | 70 | 1004.9 |
| 20260505151558 | 65 | 360 | 1.0 | 6.0 | 0.01 | 0.05 | 0.05 | 69 | 1004.4 |
| 20260505150115 | 64 | 192 | 1.0 | 6.0 | 0.01 | 0.05 | 0.05 | 69 | 1004.2 |